AFR1519 EDDF-LFPG

Flight info

Callsign AFR1519
Flight time 0h 54m
Altitude 24000
Route SOBRA2L/18 SOBRA Y180 DIK UN857 TOLVU/N0410F230 DCT RAPOR DCT VEDUS
Aircraft A320/M-SDE3FGHIRWY/LB1

Departure

Time 2026-05-04 20:52
Airport Frankfurt Main Airport (EDDF)

Arrival

Time 2026-05-04 21:47
Airport Charles de Gaulle International Airport (LFPG)
Time Latitude Longitude Altitude Speed Heading
2026-05-04 20:04 50.04877 8.58972 365 ft 0 kts 340°
2026-05-04 20:29 50.04856 8.58984 365 ft 4 kts 340°
2026-05-04 20:30 50.04831 8.58998 367 ft 4 kts 340°
2026-05-04 20:30 50.04806 8.59012 370 ft 4 kts 340°
2026-05-04 20:30 50.04792 8.59020 368 ft 1 kts 340°
2026-05-04 20:34 50.04798 8.59023 368 ft 1 kts 20°
2026-05-04 20:34 50.04800 8.59055 368 ft 5 kts 83°
2026-05-04 20:34 50.04808 8.59104 370 ft 5 kts 69°
2026-05-04 20:34 50.04821 8.59159 371 ft 5 kts 70°
2026-05-04 20:35 50.04838 8.59229 371 ft 10 kts 70°
2026-05-04 20:35 50.04860 8.59326 372 ft 9 kts 70°
2026-05-04 20:35 50.04868 8.59406 369 ft 6 kts 93°
2026-05-04 20:35 50.04856 8.59455 371 ft 4 kts 124°
2026-05-04 20:36 50.04840 8.59479 370 ft 5 kts 137°
2026-05-04 20:36 50.04782 8.59555 371 ft 10 kts 143°
2026-05-04 20:36 50.04739 8.59590 374 ft 4 kts 161°
2026-05-04 20:36 50.04683 8.59609 374 ft 16 kts 171°
2026-05-04 20:37 50.04590 8.59618 375 ft 11 kts 178°
2026-05-04 20:37 50.04521 8.59623 376 ft 11 kts 177°
2026-05-04 20:37 50.04452 8.59629 376 ft 11 kts 177°
2026-05-04 20:37 50.04357 8.59633 376 ft 14 kts 179°
2026-05-04 20:38 50.04255 8.59637 375 ft 15 kts 179°
2026-05-04 20:38 50.04143 8.59600 375 ft 17 kts 200°
2026-05-04 20:38 50.04045 8.59542 375 ft 14 kts 201°
2026-05-04 20:38 50.03957 8.59454 372 ft 17 kts 221°
2026-05-04 20:39 50.03875 8.59290 367 ft 21 kts 245°
2026-05-04 20:39 50.03822 8.59079 372 ft 18 kts 249°
2026-05-04 20:39 50.03776 8.58884 364 ft 21 kts 249°
2026-05-04 20:39 50.03720 8.58654 366 ft 24 kts 249°
2026-05-04 20:40 50.03661 8.58407 361 ft 25 kts 249°
2026-05-04 20:40 50.03612 8.58203 362 ft 18 kts 249°
2026-05-04 20:40 50.03569 8.58024 363 ft 18 kts 251°
2026-05-04 20:40 50.03531 8.57859 363 ft 15 kts 250°
2026-05-04 20:41 50.03495 8.57706 357 ft 15 kts 249°
2026-05-04 20:41 50.03461 8.57565 359 ft 13 kts 249°
2026-05-04 20:41 50.03431 8.57438 360 ft 12 kts 249°
2026-05-04 20:41 50.03398 8.57303 358 ft 14 kts 249°
2026-05-04 20:42 50.03361 8.57145 359 ft 17 kts 250°
2026-05-04 20:42 50.03320 8.56975 356 ft 17 kts 250°
2026-05-04 20:42 50.03302 8.56897 359 ft 0 kts 250°
2026-05-04 20:42 50.03300 8.56878 355 ft 9 kts 265°
2026-05-04 20:43 50.03348 8.56761 351 ft 15 kts 295°
2026-05-04 20:43 50.03324 8.56608 354 ft 16 kts 248°
2026-05-04 20:43 50.03286 8.56438 354 ft 15 kts 249°
2026-05-04 20:43 50.03248 8.56283 348 ft 16 kts 250°
2026-05-04 20:44 50.03234 8.56225 347 ft 2 kts 250°
2026-05-04 20:44 50.03214 8.56139 355 ft 13 kts 249°
2026-05-04 20:44 50.03179 8.56000 348 ft 15 kts 249°
2026-05-04 20:44 50.03140 8.55835 352 ft 18 kts 250°
2026-05-04 20:45 50.03097 8.55656 347 ft 12 kts 249°
2026-05-04 20:45 50.03057 8.55532 348 ft 14 kts 241°
2026-05-04 20:45 50.03025 8.55380 345 ft 16 kts 260°
2026-05-04 20:45 50.02991 8.55206 340 ft 18 kts 250°
2026-05-04 20:46 50.02945 8.55014 338 ft 20 kts 249°
2026-05-04 20:46 50.02894 8.54807 335 ft 20 kts 249°
2026-05-04 20:46 50.02848 8.54613 338 ft 18 kts 249°
2026-05-04 20:46 50.02809 8.54447 337 ft 15 kts 249°
2026-05-04 20:47 50.02774 8.54301 339 ft 14 kts 249°
2026-05-04 20:47 50.02740 8.54163 336 ft 14 kts 249°
2026-05-04 20:47 50.02707 8.54025 331 ft 13 kts 249°
2026-05-04 20:47 50.02675 8.53892 333 ft 13 kts 250°
2026-05-04 20:48 50.02648 8.53774 333 ft 11 kts 250°
2026-05-04 20:48 50.02624 8.53682 332 ft 8 kts 247°
2026-05-04 20:48 50.02613 8.53641 332 ft 1 kts 246°
2026-05-04 20:48 50.02571 8.53632 332 ft 12 kts 189°
2026-05-04 20:49 50.02514 8.53556 336 ft 10 kts 243°
2026-05-04 20:49 50.02489 8.53454 336 ft 10 kts 251°
2026-05-04 20:49 50.02466 8.53356 334 ft 10 kts 249°
2026-05-04 20:49 50.02435 8.53227 332 ft 17 kts 250°
2026-05-04 20:50 50.02390 8.53044 334 ft 19 kts 248°
2026-05-04 20:50 50.02343 8.52849 333 ft 19 kts 249°
2026-05-04 20:50 50.02303 8.52683 332 ft 0 kts 248°
2026-05-04 20:51 50.02272 8.52618 333 ft 11 kts 212°
2026-05-04 20:51 50.02238 8.52606 335 ft 4 kts 183°
2026-05-04 20:51 50.01992 8.52607 335 ft 73 kts 179°
2026-05-04 20:51 50.01262 8.52613 333 ft 135 kts 179°
2026-05-04 20:52 50.00176 8.52605 477 ft 169 kts 181°
2026-05-04 20:52 49.98963 8.52588 1105 ft 175 kts 179°
2026-05-04 20:52 49.97753 8.52681 1823 ft 173 kts 176°
2026-05-04 20:52 49.96526 8.52794 2347 ft 185 kts 177°
2026-05-04 20:53 49.95161 8.52915 2672 ft 208 kts 177°
2026-05-04 20:53 49.93632 8.53041 3064 ft 229 kts 178°
2026-05-04 20:53 49.92032 8.53164 3850 ft 231 kts 178°
2026-05-04 20:53 49.90444 8.53276 4745 ft 232 kts 178°
2026-05-04 20:54 49.88834 8.53387 5639 ft 232 kts 178°
2026-05-04 20:54 49.87228 8.53289 6531 ft 230 kts 191°
2026-05-04 20:54 49.85632 8.52565 7008 ft 251 kts 200°
2026-05-04 20:54 49.83949 8.51611 7629 ft 262 kts 200°
2026-05-04 20:55 49.82224 8.50624 8453 ft 266 kts 200°
2026-05-04 20:55 49.80479 8.49630 9319 ft 269 kts 200°
2026-05-04 20:55 49.78721 8.48578 10145 ft 273 kts 207°
2026-05-04 20:55 49.77177 8.46787 10608 ft 291 kts 228°
2026-05-04 20:56 49.76181 8.43981 10841 ft 318 kts 252°
2026-05-04 20:56 49.76084 8.40453 11110 ft 343 kts 278°
2026-05-04 20:56 49.76668 8.36813 11704 ft 352 kts 282°
2026-05-04 20:56 49.77279 8.33126 12415 ft 356 kts 282°
2026-05-04 20:57 49.77886 8.29391 13134 ft 360 kts 281°
2026-05-04 20:57 49.78493 8.25618 13833 ft 364 kts 281°
2026-05-04 20:57 49.79101 8.21805 14462 ft 367 kts 281°
2026-05-04 20:57 49.79714 8.17955 15105 ft 370 kts 281°
2026-05-04 20:58 49.80334 8.14069 15721 ft 374 kts 281°
2026-05-04 20:58 49.80950 8.10198 16336 ft 377 kts 281°
2026-05-04 20:58 49.81578 8.06241 16984 ft 380 kts 281°
2026-05-04 20:58 49.82210 8.02254 17626 ft 382 kts 281°
2026-05-04 20:59 49.82845 7.98242 18271 ft 385 kts 281°
2026-05-04 20:59 49.83482 7.94199 18814 ft 388 kts 281°
2026-05-04 20:59 49.84123 7.90122 19361 ft 391 kts 281°
2026-05-04 20:59 49.84764 7.86016 19898 ft 394 kts 280°
2026-05-04 21:00 49.85408 7.81872 20435 ft 397 kts 280°
2026-05-04 21:00 49.86057 7.77699 20959 ft 400 kts 280°
2026-05-04 21:00 49.86707 7.73551 21458 ft 403 kts 280°
2026-05-04 21:00 49.87378 7.69315 21965 ft 406 kts 281°
2026-05-04 21:01 49.88049 7.65051 22441 ft 409 kts 280°
2026-05-04 21:01 49.88719 7.60745 22911 ft 412 kts 280°
2026-05-04 21:01 49.89387 7.56414 23411 ft 414 kts 280°
2026-05-04 21:01 49.90051 7.52058 23809 ft 416 kts 280°
2026-05-04 21:02 49.90716 7.47679 23949 ft 418 kts 280°
2026-05-04 21:02 49.91391 7.43242 23988 ft 426 kts 280°
2026-05-04 21:02 49.92076 7.38752 23989 ft 429 kts 280°
2026-05-04 21:02 49.92756 7.34310 24001 ft 429 kts 280°
2026-05-04 21:03 49.93444 7.29803 24002 ft 429 kts 280°
2026-05-04 21:03 49.94128 7.25296 24008 ft 429 kts 279°
2026-05-04 21:03 49.94810 7.20778 24001 ft 429 kts 279°
2026-05-04 21:03 49.95489 7.16267 24003 ft 429 kts 279°
2026-05-04 21:04 49.96169 7.11757 24002 ft 429 kts 279°
2026-05-04 21:04 49.96847 7.07237 24001 ft 429 kts 279°
2026-05-04 21:04 49.97519 7.02719 24000 ft 429 kts 279°
2026-05-04 21:04 49.98189 6.98197 23982 ft 429 kts 279°
2026-05-04 21:05 49.98844 6.93738 23985 ft 429 kts 277°
2026-05-04 21:05 49.99219 6.89172 23977 ft 424 kts 269°
2026-05-04 21:05 49.99163 6.84612 23976 ft 421 kts 263°
2026-05-04 21:05 49.99020 6.80071 23991 ft 421 kts 263°
2026-05-04 21:06 49.98884 6.75531 23993 ft 420 kts 263°
2026-05-04 21:06 49.98750 6.70999 23992 ft 420 kts 263°
2026-05-04 21:06 49.98614 6.66471 23991 ft 419 kts 263°
2026-05-04 21:06 49.98477 6.61948 23988 ft 419 kts 263°
2026-05-04 21:07 49.98184 6.57522 23985 ft 415 kts 256°
2026-05-04 21:07 49.97440 6.53219 23961 ft 411 kts 247°
2026-05-04 21:07 49.96338 6.49141 23955 ft 409 kts 243°
2026-05-04 21:07 49.95196 6.45091 23956 ft 409 kts 243°
2026-05-04 21:08 49.94059 6.41041 23952 ft 409 kts 243°
2026-05-04 21:08 49.92923 6.36993 23975 ft 409 kts 243°
2026-05-04 21:08 49.91784 6.32944 23963 ft 410 kts 244°
2026-05-04 21:08 49.90640 6.28883 23948 ft 411 kts 244°
2026-05-04 21:09 49.89482 6.24830 23951 ft 412 kts 244°
2026-05-04 21:09 49.88316 6.20826 23942 ft 413 kts 244°
2026-05-04 21:09 49.87154 6.16753 23943 ft 413 kts 244°
2026-05-04 21:09 49.85907 6.12748 23943 ft 412 kts 238°
2026-05-04 21:10 49.84327 6.09056 23950 ft 412 kts 233°
2026-05-04 21:10 49.82673 6.05444 23952 ft 412 kts 233°
2026-05-04 21:10 49.81009 6.01817 23951 ft 412 kts 233°
2026-05-04 21:10 49.79348 5.98208 23943 ft 412 kts 233°
2026-05-04 21:11 49.77682 5.94599 23946 ft 412 kts 233°
2026-05-04 21:11 49.76040 5.91039 23950 ft 412 kts 233°
2026-05-04 21:11 49.74476 5.87329 23962 ft 413 kts 240°
2026-05-04 21:11 49.73308 5.83276 23965 ft 414 kts 249°
2026-05-04 21:12 49.72345 5.79069 23963 ft 415 kts 249°
2026-05-04 21:12 49.71377 5.74877 23960 ft 414 kts 249°
2026-05-04 21:12 49.70401 5.70687 23961 ft 415 kts 248°
2026-05-04 21:12 49.69423 5.66503 23962 ft 415 kts 248°
2026-05-04 21:13 49.68442 5.62310 23958 ft 415 kts 248°
2026-05-04 21:13 49.67462 5.58126 23948 ft 415 kts 248°
2026-05-04 21:13 49.66494 5.53997 23955 ft 415 kts 248°
2026-05-04 21:13 49.65513 5.49811 23947 ft 415 kts 248°
2026-05-04 21:14 49.64532 5.45625 23956 ft 415 kts 248°
2026-05-04 21:14 49.63549 5.41454 23958 ft 410 kts 248°
2026-05-04 21:14 49.62577 5.37353 23978 ft 405 kts 249°
2026-05-04 21:14 49.61638 5.33269 23972 ft 404 kts 249°
2026-05-04 21:15 49.60746 5.29167 23964 ft 404 kts 250°
2026-05-04 21:15 49.59884 5.25051 23973 ft 404 kts 251°
2026-05-04 21:15 49.59300 5.20814 23964 ft 406 kts 261°
2026-05-04 21:15 49.59193 5.16478 23921 ft 414 kts 269°
2026-05-04 21:16 49.59252 5.12037 23683 ft 414 kts 269°
2026-05-04 21:16 49.59295 5.07599 23435 ft 413 kts 268°
2026-05-04 21:16 49.59326 5.03175 23162 ft 412 kts 268°
2026-05-04 21:16 49.59351 4.98763 22898 ft 411 kts 268°
2026-05-04 21:17 49.59377 4.94367 22624 ft 410 kts 268°
2026-05-04 21:17 49.59404 4.89984 22362 ft 409 kts 269°
2026-05-04 21:17 49.59428 4.85606 22095 ft 408 kts 269°
2026-05-04 21:17 49.59454 4.81241 21834 ft 407 kts 268°
2026-05-04 21:18 49.59294 4.76967 21575 ft 404 kts 261°
2026-05-04 21:18 49.58798 4.72724 21311 ft 402 kts 257°
2026-05-04 21:18 49.58264 4.68506 21057 ft 401 kts 257°
2026-05-04 21:18 49.57731 4.64301 20798 ft 399 kts 257°
2026-05-04 21:19 49.57197 4.60106 20555 ft 398 kts 257°
2026-05-04 21:19 49.56665 4.55929 20536 ft 397 kts 257°
2026-05-04 21:19 49.56131 4.51756 20532 ft 398 kts 257°
2026-05-04 21:19 49.55594 4.47576 20544 ft 398 kts 258°
2026-05-04 21:20 49.55063 4.43443 20542 ft 400 kts 258°
2026-05-04 21:20 49.54522 4.39236 20531 ft 401 kts 258°
2026-05-04 21:20 49.53979 4.35025 20535 ft 401 kts 258°
2026-05-04 21:20 49.53435 4.30829 20539 ft 401 kts 258°
2026-05-04 21:21 49.52885 4.26608 20545 ft 401 kts 258°
2026-05-04 21:21 49.52334 4.22397 20537 ft 401 kts 258°
2026-05-04 21:21 49.51783 4.18197 20545 ft 401 kts 258°
2026-05-04 21:21 49.51231 4.13994 20545 ft 401 kts 257°
2026-05-04 21:22 49.50684 4.09843 20544 ft 401 kts 257°
2026-05-04 21:22 49.50130 4.05640 20544 ft 401 kts 257°
2026-05-04 21:22 49.49575 4.01438 20544 ft 401 kts 257°
2026-05-04 21:22 49.49016 3.97242 20544 ft 401 kts 257°
2026-05-04 21:23 49.48452 3.93037 20542 ft 401 kts 257°
2026-05-04 21:23 49.47888 3.88840 20533 ft 401 kts 257°
2026-05-04 21:23 49.47328 3.84643 20544 ft 401 kts 257°
2026-05-04 21:23 49.46765 3.80444 20534 ft 401 kts 257°
2026-05-04 21:24 49.46195 3.76249 20533 ft 401 kts 257°
2026-05-04 21:24 49.45632 3.72115 20532 ft 400 kts 257°
2026-05-04 21:24 49.45062 3.67932 20530 ft 400 kts 257°
2026-05-04 21:24 49.44492 3.63740 20532 ft 400 kts 257°
2026-05-04 21:25 49.43923 3.59565 20494 ft 398 kts 257°
2026-05-04 21:25 49.43360 3.55445 20051 ft 392 kts 257°
2026-05-04 21:25 49.42798 3.51354 19453 ft 391 kts 257°
2026-05-04 21:25 49.42235 3.47274 18912 ft 389 kts 257°
2026-05-04 21:26 49.41458 3.43313 18395 ft 386 kts 247°
2026-05-04 21:26 49.40444 3.39512 17828 ft 384 kts 247°
2026-05-04 21:26 49.39435 3.35735 17259 ft 381 kts 247°
2026-05-04 21:26 49.38444 3.32036 16706 ft 379 kts 247°
2026-05-04 21:27 49.37441 3.28298 16165 ft 377 kts 247°
2026-05-04 21:27 49.36446 3.24596 15628 ft 375 kts 247°
2026-05-04 21:27 49.35452 3.20906 15130 ft 373 kts 247°
2026-05-04 21:27 49.34460 3.17227 14947 ft 374 kts 247°
2026-05-04 21:28 49.33465 3.13541 14964 ft 374 kts 247°
2026-05-04 21:28 49.32467 3.09854 14963 ft 375 kts 247°
2026-05-04 21:28 49.31464 3.06156 14965 ft 376 kts 247°
2026-05-04 21:28 49.30457 3.02457 14963 ft 376 kts 247°
2026-05-04 21:29 49.29451 2.98756 14962 ft 375 kts 247°
2026-05-04 21:29 49.28483 2.95189 14882 ft 361 kts 247°
2026-05-04 21:29 49.27537 2.91706 14765 ft 348 kts 247°
2026-05-04 21:29 49.26625 2.88355 14636 ft 336 kts 246°
2026-05-04 21:30 49.25735 2.85092 14512 ft 325 kts 246°
2026-05-04 21:30 49.24874 2.81948 14383 ft 316 kts 246°
2026-05-04 21:30 49.24033 2.78880 14125 ft 311 kts 246°
2026-05-04 21:30 49.23198 2.75834 13805 ft 309 kts 246°
2026-05-04 21:31 49.21537 2.69799 13073 ft 306 kts 246°
2026-05-04 21:31 49.20710 2.66804 12715 ft 305 kts 246°
2026-05-04 21:31 49.19888 2.63827 12350 ft 303 kts 246°
2026-05-04 21:32 49.19069 2.60865 11987 ft 302 kts 246°
2026-05-04 21:32 49.18318 2.57878 11629 ft 301 kts 255°
2026-05-04 21:32 49.18040 2.54727 11271 ft 300 kts 268°
2026-05-04 21:32 49.17985 2.51592 10911 ft 299 kts 268°
2026-05-04 21:33 49.17924 2.48426 10550 ft 297 kts 268°
2026-05-04 21:33 49.17854 2.45274 10204 ft 296 kts 268°
2026-05-04 21:33 49.17780 2.42137 9844 ft 295 kts 268°
2026-05-04 21:33 49.17708 2.39015 9455 ft 293 kts 268°
2026-05-04 21:34 49.17641 2.35910 9081 ft 291 kts 269°
2026-05-04 21:34 49.17600 2.32879 8947 ft 280 kts 269°
2026-05-04 21:34 49.17573 2.29957 8788 ft 271 kts 269°
2026-05-04 21:34 49.17552 2.27134 8502 ft 267 kts 269°
2026-05-04 21:35 49.17528 2.24309 8123 ft 265 kts 269°
2026-05-04 21:35 49.17351 2.21523 7742 ft 263 kts 252°
2026-05-04 21:35 49.16633 2.18961 7355 ft 262 kts 243°
2026-05-04 21:35 49.15810 2.16479 6961 ft 261 kts 242°
2026-05-04 21:36 49.14978 2.14019 6584 ft 260 kts 242°
2026-05-04 21:36 49.14149 2.11569 6203 ft 259 kts 242°
2026-05-04 21:36 49.13322 2.09133 5783 ft 258 kts 242°
2026-05-04 21:36 49.12495 2.06712 5394 ft 257 kts 242°
2026-05-04 21:37 49.11670 2.04308 5051 ft 253 kts 242°
2026-05-04 21:37 49.10881 2.02020 4970 ft 240 kts 242°
2026-05-04 21:37 49.10112 1.99796 4976 ft 236 kts 242°
2026-05-04 21:37 49.09307 1.97622 4980 ft 235 kts 231°
2026-05-04 21:38 49.08086 1.96019 4984 ft 232 kts 202°
2026-05-04 21:38 49.06526 1.95641 4986 ft 228 kts 168°
2026-05-04 21:38 49.05119 1.96607 4979 ft 222 kts 135°
2026-05-04 21:38 49.04132 1.98383 4725 ft 220 kts 124°
2026-05-04 21:39 49.03266 2.00302 4369 ft 219 kts 122°
2026-05-04 21:39 49.02418 2.02228 4049 ft 218 kts 122°
2026-05-04 21:39 49.01861 2.03490 3981 ft 217 kts 122°
2026-05-04 21:39 49.00759 2.05984 3972 ft 206 kts 122°
2026-05-04 21:40 49.00165 2.07872 3978 ft 195 kts 101°
2026-05-04 21:40 49.00082 2.09902 3981 ft 193 kts 84°
2026-05-04 21:40 49.00200 2.11934 3982 ft 193 kts 84°
2026-05-04 21:40 49.00319 2.13963 3989 ft 190 kts 84°
2026-05-04 21:41 49.00393 2.15241 4009 ft 177 kts 84°
2026-05-04 21:41 49.00495 2.17016 3981 ft 160 kts 84°
2026-05-04 21:41 49.00586 2.18618 3958 ft 150 kts 84°
2026-05-04 21:41 49.00689 2.20394 3986 ft 184 kts 84°
2026-05-04 21:42 49.00802 2.22388 3985 ft 192 kts 84°
2026-05-04 21:42 49.00918 2.24428 3930 ft 194 kts 84°
2026-05-04 21:42 49.01071 2.27136 3654 ft 192 kts 84°
2026-05-04 21:42 49.01147 2.28503 3493 ft 192 kts 84°
2026-05-04 21:43 49.01261 2.30526 3244 ft 191 kts 84°
2026-05-04 21:43 49.01373 2.32536 2989 ft 188 kts 84°
2026-05-04 21:43 49.01478 2.34409 2745 ft 172 kts 84°
2026-05-04 21:43 49.01574 2.36140 2521 ft 156 kts 84°
2026-05-04 21:44 49.01661 2.37721 2319 ft 144 kts 83°
2026-05-04 21:44 49.01744 2.39218 2132 ft 141 kts 83°
2026-05-04 21:44 49.01826 2.40696 1948 ft 139 kts 83°
2026-05-04 21:44 49.01908 2.42167 1765 ft 139 kts 83°
2026-05-04 21:45 49.01988 2.43623 1594 ft 138 kts 83°
2026-05-04 21:45 49.02067 2.45062 1388 ft 136 kts 84°
2026-05-04 21:45 49.02144 2.46481 1204 ft 136 kts 84°
2026-05-04 21:45 49.02223 2.47922 1014 ft 137 kts 84°
2026-05-04 21:46 49.02302 2.49372 812 ft 137 kts 84°
2026-05-04 21:46 49.02381 2.50826 658 ft 138 kts 84°
2026-05-04 21:46 49.02462 2.52277 433 ft 138 kts 83°
2026-05-04 21:46 49.02535 2.53699 359 ft 126 kts 85°
2026-05-04 21:47 49.02585 2.54580 351 ft 43 kts 85°
2026-05-04 21:47 49.02606 2.54932 355 ft 29 kts 81°
2026-05-04 21:47 49.02592 2.55195 359 ft 24 kts 108°
2026-05-04 21:47 49.02547 2.55368 359 ft 15 kts 114°
2026-05-04 21:48 49.02512 2.55477 358 ft 12 kts 113°
2026-05-04 21:48 49.02499 2.55520 358 ft 0 kts 113°
2026-05-04 21:48 49.02497 2.55529 359 ft 0 kts 113°
2026-05-04 21:49 49.02483 2.55583 356 ft 13 kts 109°
2026-05-04 21:49 49.02455 2.55654 361 ft 7 kts 129°
2026-05-04 21:49 49.02474 2.55762 356 ft 15 kts 79°
2026-05-04 21:49 49.02483 2.55900 355 ft 8 kts 85°
2026-05-04 21:50 49.02484 2.55918 354 ft 0 kts 85°